Torna al catalogo

STARLINK-31037

AttivoComunicazioniVLEO
NORAD 58536·PAYLOAD·🇺🇸 United States

Lanciato Dec 8, 2023 da Vandenberg Space Force Base

Loading…

Prossimi Passaggi (prossime 24 ore)

TLE

AggiornatoSource: CelesTrak SupGP

Epoca: Sep 14, 2026, 21:24 UTC

1 58536C 23192F   26257.89215278  .00047348  00000+0  13991-2 0  2575
2 58536  53.1577 260.1589 0001139  91.7540   7.9797 15.34362468    10

Traccia STARLINK-31037 in tempo reale con AllMySat

Download on the App Store